Weather History for KDRM - April, 2013

Change the Weather History Date:

Monday, April 29, 2013

  Actual Average (KCIU) Record (KCIU)
Temperature  
Mean Temperature 51 °F -  
Max Temperature 57 °F 59 °F 79 °F (1990)
Min Temperature 45 °F 32 °F 21 °F (1983)
Degree Days  
Heating Degree Days 14    
Growing Degree Days 1 (Base 50)    
Moisture  
Dew Point 48 °F    
Average Humidity 97    
Maximum Humidity 100    
Minimum Humidity 78    
Precipitation  
Precipitation 0.00 in - - ()
Sea Level Pressure  
Sea Level Pressure 29.88 in    
Wind  
Wind Speed 7 mph (SE)    
Max Wind Speed 12 mph    
Max Gust Speed 20 mph    
Visibility 5 miles    
Events Fog , Rain    
Averages and records for this station are not official NWS values.
T = Trace of Precipitation, MM = Missing Value Source: NWS Daily Summary

Daily Weather History Graph

Daily Weather History Graph

Search for Another Location

Airport or City:

Trip Planner

Search our weather history database for the weather conditions in past years. The results will help you decide how hot, cold, wet, or windy it might be!

Date:

Astronomy

Apr. 29, 2013 Rise Set
Actual Time 6:24 AM EDT 8:40 PM EDT
Civil Twilight 5:51 AM EDT 9:13 PM EDT
Nautical Twilight 5:10 AM EDT 9:54 PM EDT
Astronomical Twilight 4:25 AM EDT 10:40 PM EDT
Moon 12:14 AM EDT (4/29) 9:38 AM EDT (4/29)
Length of Visible Light 15h 22m
Length of Day
14h 16m
Waning Gibbous, 80% of the Moon is Illuminated
Apr 29
Waning Gibbous
May 2
Last Quarter
May 9
New
May 18
First Quarter
May 25
Full

Hourly Weather History & Observations

Time (EDT) Temp. Windchill Dew Point Humidity Pressure Visibility Wind Dir Wind Speed Gust Speed Precip Events Conditions
12:16 AM 47.3 °F - 47.3 °F 100% 29.87 in 2.5 mi SSE 8.1 mph - N/A   Mostly Cloudy
12:35 AM 47.1 °F - 47.1 °F 100% 29.87 in 1.0 mi SSE 8.1 mph - N/A   Overcast
12:55 AM 46.6 °F - 46.6 °F 100% 29.86 in 0.8 mi SE 9.2 mph - N/A   Overcast
1:16 AM 45.7 °F 41.0 °F 45.7 °F 100% 29.87 in 0.5 mi SSE 9.2 mph - N/A Fog Fog
1:35 AM 45.9 °F 42.9 °F 45.9 °F 100% 29.87 in 2.0 mi SSE 5.8 mph - N/A   Overcast
1:56 AM 46.9 °F - 46.9 °F 100% 29.87 in 5.0 mi SE 3.5 mph - N/A   Overcast
2:15 AM 46.9 °F - 46.9 °F 100% 29.87 in 5.0 mi SE 6.9 mph - N/A   Overcast
2:35 AM 46.8 °F - 46.8 °F 100% 29.87 in 3.0 mi SE 4.6 mph - N/A   Overcast
2:56 AM 46.4 °F 43.5 °F 46.4 °F 100% 29.87 in 2.5 mi SE 5.8 mph - N/A   Overcast
3:15 AM 46.4 °F 43.5 °F 46.4 °F 100% 29.87 in 2.0 mi SE 5.8 mph - N/A   Overcast
3:35 AM 45.9 °F 43.6 °F 45.9 °F 100% 29.87 in 1.5 mi SE 4.6 mph - N/A   Overcast
3:56 AM 45.9 °F 42.9 °F 45.9 °F 100% 29.86 in 1.2 mi SE 5.8 mph - N/A   Overcast
4:15 AM 46.0 °F 43.9 °F 46.0 °F 100% 29.86 in 1.2 mi SE 4.6 mph - N/A   Overcast
4:35 AM 46.2 °F 43.3 °F 46.2 °F 100% 29.85 in 1.2 mi SE 5.8 mph - N/A   Overcast
4:55 AM 45.9 °F 44.6 °F 45.9 °F 100% 29.86 in 1.2 mi SSE 3.5 mph - N/A   Overcast
5:15 AM 45.9 °F 43.6 °F 45.9 °F 100% 29.86 in 1.0 mi SSE 4.6 mph - N/A   Overcast
5:35 AM 45.9 °F 44.6 °F 45.9 °F 100% 29.86 in 1.2 mi SE 3.5 mph - N/A   Overcast
5:55 AM 45.5 °F 44.2 °F 45.5 °F 100% 29.87 in 1.2 mi SE 3.5 mph - N/A   Overcast
6:16 AM 45.5 °F 42.5 °F 45.5 °F 100% 29.87 in 0.8 mi SE 5.8 mph - N/A   Overcast
6:35 AM 45.5 °F 44.2 °F 45.5 °F 100% 29.88 in 0.8 mi SSE 3.5 mph - N/A   Overcast
6:55 AM 45.5 °F 43.2 °F 45.5 °F 100% 29.87 in 0.5 mi SE 4.6 mph - N/A Fog Fog
7:16 AM 45.5 °F - 45.5 °F 100% 29.88 in 0.5 mi Calm Calm - N/A Fog Fog
7:35 AM 45.5 °F - 45.5 °F 100% 29.88 in 0.5 mi Calm Calm - N/A Fog Fog
7:55 AM 45.9 °F 44.6 °F 45.9 °F 100% 29.88 in 0.5 mi SE 3.5 mph - N/A Fog Fog
8:16 AM 45.9 °F 44.6 °F 45.9 °F 100% 29.89 in 0.8 mi SE 3.5 mph - N/A   Overcast
8:35 AM 45.7 °F 43.4 °F 45.7 °F 100% 29.89 in 0.8 mi SE 4.6 mph - N/A   Overcast
8:56 AM 46.8 °F - 46.8 °F 100% 29.89 in 1.0 mi SE 5.8 mph - N/A   Overcast
9:15 AM 47.5 °F - 47.5 °F 100% 29.89 in 1.2 mi SSE 5.8 mph - N/A   Overcast
9:35 AM 48.2 °F - 48.2 °F 100% 29.90 in 4.0 mi SSE 4.6 mph - N/A   Overcast
9:56 AM 48.6 °F - 48.6 °F 100% 29.89 in 4.0 mi SSE 6.9 mph - N/A   Overcast
10:15 AM 48.6 °F - 48.6 °F 100% 29.89 in 5.0 mi SSE 6.9 mph - N/A   Overcast
10:35 AM 50.0 °F - 48.4 °F 94% 29.89 in 10.0 mi SE 9.2 mph - N/A   Overcast
10:56 AM 51.1 °F - 48.7 °F 92% 29.89 in 10.0 mi SE 8.1 mph - N/A   Overcast
11:15 AM 53.1 °F - 49.8 °F 89% 29.88 in 10.0 mi SE 8.1 mph - N/A   Mostly Cloudy
11:35 AM 54.1 °F - 50.2 °F 86% 29.88 in 10.0 mi SSE 8.1 mph - N/A   Scattered Clouds
11:56 AM 55.6 °F - 50.0 °F 81% 29.88 in 10.0 mi ESE 10.4 mph - N/A   Scattered Clouds
12:15 PM 55.6 °F - 49.8 °F 81% 29.88 in 10.0 mi SE 9.2 mph - N/A   Clear
12:35 PM 57.0 °F - 50.2 °F 78% 29.88 in 10.0 mi SSE 10.4 mph - N/A   Clear
12:55 PM 55.9 °F - 49.6 °F 79% 29.87 in 10.0 mi SSE 9.2 mph - N/A   Clear
1:15 PM 53.2 °F - 49.1 °F 86% 29.87 in 10.0 mi SE 8.1 mph - N/A   Scattered Clouds
1:36 PM 53.1 °F - 48.9 °F 86% 29.88 in 10.0 mi SE 9.2 mph - N/A   Mostly Cloudy
1:55 PM 51.8 °F - 48.6 °F 89% 29.88 in 10.0 mi SE 8.1 mph - N/A   Overcast
2:15 PM 50.7 °F - 48.2 °F 91% 29.87 in 10.0 mi SE 6.9 mph - N/A Rain Light Rain
2:36 PM 50.5 °F - 49.1 °F 95% 29.87 in 10.0 mi SE 5.8 mph - N/A Rain Light Rain
2:55 PM 50.5 °F - 49.5 °F 96% 29.87 in 10.0 mi ESE 9.2 mph - N/A   Light Drizzle
3:15 PM 50.4 °F - 49.5 °F 97% 29.87 in 10.0 mi SE 10.4 mph 18.4 mph N/A   Overcast
3:36 PM 52.0 °F - 50.2 °F 94% 29.86 in 10.0 mi ESE 8.1 mph - N/A   Overcast
3:55 PM 53.1 °F - 50.7 °F 92% 29.86 in 10.0 mi ESE 10.4 mph 18.4 mph N/A   Overcast
4:16 PM 53.8 °F - 50.9 °F 90% 29.86 in 10.0 mi SE 10.4 mph - N/A   Overcast
4:35 PM 52.2 °F - 50.2 °F 93% 29.86 in 10.0 mi ESE 11.5 mph 18.4 mph N/A Rain Light Rain
4:55 PM 51.8 °F - 50.4 °F 95% 29.87 in 10.0 mi SE 10.4 mph - N/A   Drizzle
5:16 PM 51.1 °F - 50.4 °F 97% 29.87 in 10.0 mi SSE 8.1 mph - N/A Rain Rain
5:35 PM 50.4 °F - 50.0 °F 99% 29.88 in 7.0 mi SSE 8.1 mph - N/A Rain Light Rain
5:55 PM 49.3 °F - 49.3 °F 100% 29.88 in 10.0 mi SSE 10.4 mph 18.4 mph N/A Rain Rain
6:16 PM 48.4 °F - 48.4 °F 100% 29.88 in 7.0 mi SE 9.2 mph - N/A Rain Light Rain
6:35 PM 47.7 °F - 47.7 °F 100% 29.88 in 7.0 mi SE 10.4 mph 16.1 mph N/A Rain Light Rain
6:55 PM 46.8 °F - 46.8 °F 100% 29.88 in 5.0 mi SSE 10.4 mph 16.1 mph N/A Rain Light Rain
7:15 PM 47.5 °F - 47.5 °F 100% 29.87 in 7.0 mi SE 10.4 mph 19.6 mph N/A Rain Light Rain
7:35 PM 47.5 °F - 47.5 °F 100% 29.88 in 7.0 mi SE 11.5 mph 18.4 mph N/A   Light Drizzle
7:56 PM 47.3 °F - 47.3 °F 100% 29.88 in 1.5 mi SE 11.5 mph 17.3 mph N/A   Overcast
8:15 PM 48.2 °F - 48.2 °F 100% 29.87 in 10.0 mi SE 9.2 mph 16.1 mph N/A   Overcast
8:35 PM 48.2 °F - 48.2 °F 100% 29.88 in 10.0 mi SE 10.4 mph 16.1 mph N/A   Overcast
8:56 PM 47.7 °F - 47.7 °F 100% 29.89 in 5.0 mi SSE 10.4 mph - N/A   Overcast
9:15 PM 46.9 °F - 46.9 °F 100% 29.89 in 4.0 mi SE 8.1 mph - N/A   Overcast
9:35 PM 47.3 °F - 47.3 °F 100% 29.90 in 4.0 mi SSE 11.5 mph 17.3 mph N/A   Overcast
9:56 PM 46.8 °F - 46.8 °F 100% 29.91 in 2.0 mi SSE 8.1 mph - N/A   Overcast
10:15 PM 46.9 °F - 46.9 °F 100% 29.91 in 5.0 mi SSE 9.2 mph - N/A   Overcast
10:36 PM 47.3 °F - 47.3 °F 100% 29.91 in 7.0 mi SE 9.2 mph - N/A   Overcast
10:55 PM 47.5 °F - 47.5 °F 100% 29.90 in 7.0 mi SSE 9.2 mph - N/A   Overcast
11:35 PM 48.9 °F - 48.9 °F 100% 29.91 in 5.0 mi SSE 8.1 mph - N/A   Overcast
11:55 PM 49.1 °F - 49.1 °F 100% 29.91 in 5.0 mi SSE 9.2 mph - N/A   Overcast